Weather History for Great Bend, KS

Change the Weather History Date:

Sunday, July 8, 2012

  Actual Average Record
Temperature  
Mean Temperature 82 °F -  
Max Temperature 93 °F 96 °F 105 °F (1980)
Min Temperature 71 °F 70 °F 45 °F (1952)
Cooling Degree Days 17    
Growing Degree Days 32 (Base 50)    
Moisture  
Dew Point 64 °F    
Average Humidity 54    
Maximum Humidity 73    
Minimum Humidity 36    
Precipitation  
Precipitation 0.00 in - - ()
Sea Level Pressure  
Sea Level Pressure 30.09 in    
Wind  
Wind Speed 10 mph (NE)    
Max Wind Speed 21 mph    
Max Gust Speed 33 mph    
Visibility 10 miles    
Events      
Averages and records for this station are not official NWS values.
T = Trace of Precipitation, MM = Missing Value Source: NWS Daily Summary

Daily Weather History Graph

Daily Weather History Graph

Search for Another Location

Airport:

Trip Planner

Search our weather history database for the weather conditions in past years. The results will help you decide how hot, cold, wet, or windy it might be!

Date:

Astronomy

Jul. 08, 2012 Rise Set
Actual Time 6:19 AM CDT 9:01 PM CDT
Civil Twilight 5:48 AM CDT 9:32 PM CDT
Nautical Twilight 5:09 AM CDT 10:11 PM CDT
Astronomical Twilight 4:25 AM CDT 10:55 PM CDT
Moon 11:55 PM CDT (7/8) 11:43 AM CDT (7/8)
Length of Visible Light 15h 44m
Length of Day
14h 41m
Waning Gibbous, 73% of the Moon is Illuminated
Jul 8
Waning Gibbous
Jul 10
Last Quarter
Jul 18
New
Jul 26
First Quarter
Aug 1
Full

Hourly Weather History & Observations

Time (CDT) Temp. Heat Index Dew Point Humidity Pressure Visibility Wind Dir Wind Speed Gust Speed Precip Events Conditions
12:15 AM 78.8 °F - 62.6 °F 57% 30.06 in 10.0 mi NNE 4.6 mph - N/A   Clear
12:35 AM 75.2 °F - 62.6 °F 65% 30.06 in 10.0 mi North 8.1 mph - N/A   Clear
12:55 AM 75.2 °F - 62.6 °F 65% 30.06 in 10.0 mi NNW 5.8 mph - N/A   Clear
1:15 AM 75.2 °F - 64.4 °F 69% 30.08 in 10.0 mi ENE 4.6 mph - N/A   Scattered Clouds
1:35 AM 77.0 °F - 64.4 °F 65% 30.09 in 10.0 mi East 4.6 mph - N/A   Clear
1:55 AM 78.8 °F - 62.6 °F 57% 30.11 in 10.0 mi East 12.7 mph - N/A   Mostly Cloudy
2:15 AM 78.8 °F - 62.6 °F 57% 30.11 in 10.0 mi East 11.5 mph 18.4 mph N/A   Mostly Cloudy
2:35 AM 78.8 °F - 62.6 °F 57% 30.10 in 10.0 mi East 8.1 mph - N/A   Partly Cloudy
2:55 AM 75.2 °F - 62.6 °F 65% 30.10 in 10.0 mi East 6.9 mph - N/A   Clear
3:15 AM 75.2 °F - 62.6 °F 65% 30.09 in 10.0 mi East 4.6 mph - N/A   Clear
3:35 AM 73.4 °F - 62.6 °F 69% 30.09 in 10.0 mi ENE 4.6 mph - N/A   Clear
3:55 AM 75.2 °F - 62.6 °F 65% 30.09 in 10.0 mi East 3.5 mph - N/A   Clear
4:15 AM 75.2 °F - 64.4 °F 69% 30.09 in 10.0 mi ESE 4.6 mph - N/A   Mostly Cloudy
4:35 AM 73.4 °F - 62.6 °F 69% 30.08 in 10.0 mi South 10.4 mph - N/A   Scattered Clouds
4:55 AM 73.4 °F - 62.6 °F 69% 30.07 in 10.0 mi South 11.5 mph - N/A   Clear
5:15 AM 73.4 °F - 62.6 °F 69% 30.05 in 10.0 mi South 11.5 mph - N/A   Clear
5:35 AM 75.2 °F - 62.6 °F 65% 30.05 in 10.0 mi SSW 6.9 mph - N/A   Clear
6:15 AM 73.4 °F - 62.6 °F 69% 30.06 in 10.0 mi SW 4.6 mph - N/A   Clear
6:35 AM 71.6 °F - 62.6 °F 73% 30.08 in 10.0 mi East 6.9 mph - N/A   Clear
6:55 AM 75.2 °F - 62.6 °F 65% 30.10 in 10.0 mi NE 9.2 mph - N/A   Clear
7:35 AM 75.2 °F - 64.4 °F 69% 30.13 in 10.0 mi NNE 9.2 mph - N/A   Clear
7:55 AM 75.2 °F - 64.4 °F 69% 30.13 in 10.0 mi NNE 8.1 mph - N/A   Clear
8:15 AM 75.2 °F - 64.4 °F 69% 30.16 in 10.0 mi NNW 12.7 mph - N/A   Mostly Cloudy
8:35 AM 77.0 °F - 66.2 °F 69% 30.16 in 10.0 mi NNW 17.3 mph 25.3 mph N/A   Scattered Clouds
8:55 AM 75.2 °F - 64.4 °F 69% 30.17 in 10.0 mi North 20.7 mph 33.4 mph N/A   Mostly Cloudy
9:15 AM 75.2 °F - 62.6 °F 65% 30.17 in 10.0 mi North 19.6 mph 26.5 mph N/A   Partly Cloudy
9:35 AM 78.8 °F - 62.6 °F 57% 30.17 in 10.0 mi North 18.4 mph 25.3 mph N/A   Mostly Cloudy
9:55 AM 78.8 °F - 62.6 °F 57% 30.17 in 10.0 mi North 18.4 mph 25.3 mph N/A   Mostly Cloudy
10:15 AM 80.6 °F 82.3 °F 64.4 °F 58% 30.16 in 10.0 mi NNE 16.1 mph 23.0 mph N/A   Partly Cloudy
10:35 AM 82.4 °F 83.4 °F 62.6 °F 51% 30.15 in 10.0 mi NNE 20.7 mph 27.6 mph N/A   Clear
10:55 AM 82.4 °F 83.4 °F 62.6 °F 51% 30.15 in 10.0 mi North 19.6 mph 25.3 mph N/A   Clear
11:15 AM 84.2 °F 85.0 °F 62.6 °F 48% 30.15 in 10.0 mi NNE 16.1 mph 24.2 mph N/A   Clear
11:35 AM 84.2 °F 85.0 °F 62.6 °F 48% 30.14 in 10.0 mi NNE 17.3 mph 23.0 mph N/A   Clear
11:55 AM 84.2 °F 85.0 °F 62.6 °F 48% 30.14 in 10.0 mi NNE 11.5 mph 20.7 mph N/A   Clear
12:15 PM 86.0 °F 86.6 °F 62.6 °F 45% 30.14 in 10.0 mi NNE 16.1 mph 20.7 mph N/A   Clear
12:35 PM 87.8 °F 88.5 °F 62.6 °F 43% 30.13 in 10.0 mi NE 15.0 mph 20.7 mph N/A   Clear
12:55 PM 87.8 °F 88.5 °F 62.6 °F 43% 30.12 in 10.0 mi NE 15.0 mph 23.0 mph N/A   Clear
1:15 PM 89.6 °F 90.1 °F 62.6 °F 40% 30.12 in 10.0 mi NE 10.4 mph 19.6 mph N/A   Clear
1:35 PM 89.6 °F 90.1 °F 62.6 °F 40% 30.11 in 10.0 mi NE 8.1 mph 16.1 mph N/A   Clear
1:55 PM 89.6 °F 90.1 °F 62.6 °F 40% 30.11 in 10.0 mi ENE 11.5 mph - N/A   Partly Cloudy
2:35 PM 91.4 °F 93.2 °F 64.4 °F 41% 30.09 in 10.0 mi ENE 11.5 mph - N/A   Clear
2:55 PM 91.4 °F 92.1 °F 62.6 °F 38% 30.09 in 10.0 mi ENE 9.2 mph 17.3 mph N/A   Clear
3:15 PM 91.4 °F 92.1 °F 62.6 °F 38% 30.08 in 10.0 mi NE 5.8 mph - N/A   Clear
3:35 PM 93.2 °F 94.1 °F 62.6 °F 36% 30.08 in 10.0 mi ENE 6.9 mph - N/A   Partly Cloudy
3:55 PM 91.4 °F 92.1 °F 62.6 °F 38% 30.07 in 10.0 mi NNE 15.0 mph 19.6 mph N/A   Scattered Clouds
4:15 PM 91.4 °F 93.2 °F 64.4 °F 41% 30.07 in 10.0 mi NNE 12.7 mph 21.9 mph N/A   Mostly Cloudy
4:35 PM 89.6 °F 91.1 °F 64.4 °F 43% 30.06 in 10.0 mi NE 15.0 mph - N/A   Overcast
4:55 PM 89.6 °F 91.1 °F 64.4 °F 43% 30.06 in 10.0 mi NE 13.8 mph - N/A   Overcast
5:15 PM 91.4 °F 93.2 °F 64.4 °F 41% 30.06 in 10.0 mi NNE 17.3 mph - N/A   Mostly Cloudy
5:35 PM 89.6 °F 91.1 °F 64.4 °F 43% 30.05 in 10.0 mi NNE 13.8 mph 19.6 mph N/A   Partly Cloudy
5:55 PM 91.4 °F 93.2 °F 64.4 °F 41% 30.05 in 10.0 mi NNE 15.0 mph 23.0 mph N/A   Partly Cloudy
6:15 PM 91.4 °F 94.0 °F 66.2 °F 43% 30.05 in 10.0 mi ENE 18.4 mph - N/A   Scattered Clouds
6:35 PM 89.6 °F 91.1 °F 64.4 °F 43% 30.04 in 10.0 mi NE 13.8 mph 19.6 mph N/A   Partly Cloudy
6:55 PM 89.6 °F 91.1 °F 64.4 °F 43% 30.04 in 10.0 mi NNE 12.7 mph - N/A   Clear
7:15 PM 89.6 °F 91.1 °F 64.4 °F 43% 30.04 in 10.0 mi ENE 13.8 mph - N/A   Clear
7:35 PM 87.8 °F 89.4 °F 64.4 °F 46% 30.04 in 10.0 mi NE 12.7 mph - N/A   Clear
7:55 PM 87.8 °F 89.4 °F 64.4 °F 46% 30.04 in 10.0 mi ENE 12.7 mph - N/A   Clear
8:15 PM 86.0 °F 87.3 °F 64.4 °F 48% 30.04 in 10.0 mi ENE 10.4 mph - N/A   Clear
8:35 PM 84.2 °F 85.6 °F 64.4 °F 51% 30.05 in 10.0 mi ENE 10.4 mph - N/A   Clear
8:55 PM 84.2 °F 85.6 °F 64.4 °F 51% 30.05 in 10.0 mi ENE 9.2 mph - N/A   Clear
9:15 PM 82.4 °F 83.9 °F 64.4 °F 54% 30.06 in 10.0 mi ENE 8.1 mph - N/A   Clear
9:35 PM 82.4 °F 83.9 °F 64.4 °F 54% 30.07 in 10.0 mi East 5.8 mph - N/A   Clear
9:55 PM 82.4 °F 83.9 °F 64.4 °F 54% 30.09 in 10.0 mi East 5.8 mph - N/A   Clear
10:15 PM 82.4 °F 83.9 °F 64.4 °F 54% 30.10 in 10.0 mi East 5.8 mph - N/A   Clear
10:35 PM 82.4 °F 83.9 °F 64.4 °F 54% 30.11 in 10.0 mi East 5.8 mph - N/A   Clear
10:55 PM 80.6 °F 82.7 °F 66.2 °F 61% 30.11 in 10.0 mi East 6.9 mph - N/A   Clear
11:15 PM 80.6 °F 82.7 °F 66.2 °F 61% 30.11 in 10.0 mi ENE 6.9 mph - N/A   Clear
11:35 PM 78.8 °F - 64.4 °F 61% 30.12 in 10.0 mi North 6.9 mph - N/A   Clear
11:55 PM 78.8 °F - 66.2 °F 65% 30.12 in 10.0 mi NNE 11.5 mph - N/A   Clear